If you wish to contribute or participate in the discussions about articles you are invited to join SKYbrary as a registered user

 Actions

Ambler Airport

From SKYbrary Wiki

PAFM
Airport
ICAO: PAFM – IATA: ABL
Summary
Name Ambler Airport
Region North America
Territory Alaska US.gif
Location Ambler, Alaska
Serving Ambler
Elevation 101.803 m
334 ft
334 ft101.803 m
Type medium airport
Coordinates 67° 6' 23.00" N, 157° 51' 27.00" W
Runways
Designator Length Width Surface ROPS
9/27 732 m2,401.575 ft
18 m59.055 ft
GVL /
18/36 914 m2,998.688 ft
18 m59.055 ft
GVL /


METAR
Observation PAFM 260056Z AUTO 30005KT 10SM CLR 21/03 A3009 RMK AO2 SLP202 T02110028
Station Ambler, Ambler Airport
Date/Time 26 June 2019 00:56:00
Wind direction 300°
Wind speed 05 kts
Lowest cloud amount n/a
Temperature 21.1°C
Dew point 2.8°C
Humidity 29%
QNH hPa
Weather condition n/a

Maps

Terrain

Loading map...

Airport Layout

Loading map...


Accidents & Serious Incidents at or in vicinity of PAFM

None on SKYbrary